User: anonymous   Login
Location: Albany
(35.0000°S, 118.0000°E)
Time: 17:10:36
(UTC-05:00)
Language:

Cosmos 1346 Rocket - Orbit

View from above orbital plane
View from above orbital plane
View from above satellite
View from above satellite

Ground track
Ground track

The orbit data is extracted from the following two-line orbital elements,

1 13121U 82027B   14327.51484603  .00003232  00000-0  21952-3 0  5500
2 13121 081.1680 113.8571 0028568 022.3321 337.9138 15.05793004775863
Epoch (UTC): 23 November 2014 12:21:22
Eccentricity: 0.0028568
inclination: 81.1680°
perigee height: 529 km
apogee height: 569 km
right ascension of ascending node: 113.8571°
argument of perigee: 22.3321°
revolutions per day: 15.05793004
mean anomaly at epoch: 337.9138°
orbit number at epoch: 77586

The dashed part of the orbit path shows where the satellite is in the earth's shadow,  

DLR